This is the latest recevied weather packets stored in our database for station/object N3WR. If no packets are shown the sender has not sent any weather packets the latest 1 day(s).
| Time | Temp. | Humidity | Pressure | Rain* | Wind** | Luminosity | Snow |
|---|---|---|---|---|---|---|---|
| 1778098498 | 16.67° C | 92% | 1006.2 hPa | 0 mm | - | - | - |
| 1778095800 | 16.67° C | 93% | 1006.3 hPa | 0.25 mm | - | - | - |
| 1778091300 | 15.56° C | 93% | 1007 hPa | 1.02 mm | - | - | - |
| 1778088598 | 15.56° C | 92% | 1007 hPa | 2.03 mm | - | - | - |
| 1778084998 | 15.56° C | 92% | 1007.4 hPa | 1.02 mm | - | - | - |
| 1778084098 | 15.56° C | 92% | 1007.4 hPa | 2.03 mm | - | - | - |
| 1778079605 | 16.11° C | 91% | 1008 hPa | 1.52 mm | - | - | - |
| 1778076898 | 16.11° C | 90% | 1008.1 hPa | 1.02 mm | - | - | - |
| 1778075099 | 16.11° C | 90% | 1007.7 hPa | 0.51 mm | - | - | - |
| 1778074197 | 16.11° C | 89% | 1008.2 hPa | 0.25 mm | - | - | - |
| 1778069697 | 17.22° C | 82% | 1007.9 hPa | 0 mm | - | - | - |
| 1778066096 | 17.78° C | 79% | 1007.7 hPa | 0 mm | - | - | - |
| 1778065201 | 17.78° C | 79% | 1007.5 hPa | 0 mm | - | - | - |
| 1778058900 | 17.78° C | 74% | 1007.4 hPa | 0 mm | - | - | - |
| 1778057099 | 17.78° C | 72% | 1007.6 hPa | 0 mm | - | - | - |
| 1778056198 | 18.33° C | 70% | 1007.6 hPa | 0 mm | - | - | - |
| 1778054399 | 18.89° C | 68% | 1007.6 hPa | 0 mm | - | - | - |
| 1778053496 | 18.89° C | 68% | 1007.5 hPa | 0 mm | - | - | - |
| 1778049896 | 18.89° C | 66% | 1008 hPa | 0 mm | - | - | - |
| 1778048999 | 18.89° C | 65% | 1008.2 hPa | 0 mm | - | - | - |
| 1778048097 | 18.89° C | 65% | 1008.3 hPa | 0 mm | - | - | - |
| 1778045396 | 18.33° C | 63% | 1008.9 hPa | 0 mm | - | - | - |
| 1778044497 | 18.33° C | 62% | 1008.8 hPa | 0 mm | - | - | - |
| 1778043600 | 18.89° C | 62% | 1008.9 hPa | 0 mm | - | - | - |
| 1778041799 | 18.89° C | 61% | 1008.8 hPa | 0 mm | - | - | - |
* Rain latest hour (hover to see other rain measurements)
** Current wind speed in m/s (hover to see current wind gust speed)